Weather History for KLAS - April, 2014

Change the Weather History Date:

Sunday, April 27, 2014

  Actual Average Record
Temperature  
Mean Temperature 64 °F 71 °F  
Max Temperature 76 °F 82 °F 99 °F (2000)
Min Temperature 52 °F 60 °F 39 °F (1984)
Degree Days  
Heating Degree Days 1 1  
Month to date heating degree days 40 61  
Since 1 July heating degree days 1511 1941  
Cooling Degree Days 0 7  
Month to date cooling degree days 180 107  
Year to date cooling degree days 214 138  
Growing Degree Days 14 (Base 50)    
Moisture  
Dew Point 24 °F    
Average Humidity 26    
Maximum Humidity 41    
Minimum Humidity 10    
Precipitation  
Precipitation 0.00 in 0.00 in 0.10 in (1960)
Month to date precipitation T 0.14  
Year to date precipitation 0.30 1.88  
Snow  
Snow 0.00 in 0.00 in 0.00 in ()
Month to date snowfall 0.0 0.0  
Since 1 July snowfall 0.0 0.3  
Snow Depth 0.00 in    
Sea Level Pressure  
Sea Level Pressure 29.78 in    
Wind  
Wind Speed 11 mph (SSW)    
Max Wind Speed 18 mph    
Max Gust Speed 24 mph    
Visibility 10 miles    
Events      
T = Trace of Precipitation, MM = Missing Value Source: NWS Daily Summary

Daily Weather History Graph

Daily Weather History Graph

Search for Another Location

Airport or City:

Trip Planner

Search our weather history database for the weather conditions in past years. The results will help you decide how hot, cold, wet, or windy it might be!

Date:

Astronomy

Apr. 27, 2014 Rise Set
Actual Time 5:52 AM PDT 7:24 PM PDT
Civil Twilight 5:25 AM PDT 7:51 PM PDT
Nautical Twilight 4:52 AM PDT 8:24 PM PDT
Astronomical Twilight 4:18 AM PDT 8:59 PM PDT
Moon 4:51 AM PDT (4/27) 6:05 PM PDT (4/27)
Length of Visible Light 14h 26m
Length of Day
13h 32m
Waning Crescent, 3% of the Moon is Illuminated
Apr 27
Waning Crescent
Apr 28
New
May 6
First Quarter
May 14
Full
May 21
Last Quarter

Hourly Weather History & Observations

Time (PDT) Temp. Dew Point Humidity Pressure Visibility Wind Dir Wind Speed Gust Speed Precip Events Conditions
12:56 AM 55.9 °F 28.0 °F 34% 29.75 in 10.0 mi South 16.1 mph - N/A   Clear
1:56 AM 55.9 °F 27.0 °F 33% 29.76 in 10.0 mi South 12.7 mph - N/A   Partly Cloudy
2:56 AM 55.0 °F 27.0 °F 34% 29.75 in 10.0 mi South 10.4 mph - N/A   Partly Cloudy
3:56 AM 53.1 °F 28.0 °F 38% 29.76 in 10.0 mi South 16.1 mph - N/A   Clear
4:56 AM 53.1 °F 28.0 °F 38% 29.77 in 10.0 mi South 9.2 mph - N/A   Clear
5:56 AM 52.0 °F 28.0 °F 40% 29.78 in 10.0 mi South 12.7 mph - N/A   Partly Cloudy
6:56 AM 53.1 °F 28.0 °F 38% 29.81 in 10.0 mi South 9.2 mph - N/A   Partly Cloudy
7:56 AM 55.9 °F 28.9 °F 36% 29.83 in 10.0 mi South 12.7 mph - N/A   Mostly Cloudy
8:56 AM 59.0 °F 27.0 °F 29% 29.85 in 10.0 mi SSW 6.9 mph - N/A   Mostly Cloudy
9:56 AM 62.1 °F 26.1 °F 25% 29.84 in 10.0 mi South 13.8 mph - N/A   Mostly Cloudy
10:56 AM 64.9 °F 25.0 °F 22% 29.84 in 10.0 mi SSW 12.7 mph - N/A   Mostly Cloudy
11:56 AM 66.9 °F 24.1 °F 20% 29.82 in 10.0 mi South 11.5 mph - N/A   Scattered Clouds
12:56 PM 69.8 °F 24.8 °F 18% 29.83 in 10.0 mi South 9.2 mph - N/A   Mostly Cloudy
1:56 PM 71.1 °F 23.0 °F 16% 29.79 in 10.0 mi South 9.2 mph - N/A   Mostly Cloudy
2:56 PM 73.9 °F 23.0 °F 15% 29.77 in 10.0 mi SSW 4.6 mph - N/A   Scattered Clouds
3:56 PM 75.9 °F 21.9 °F 13% 29.75 in 10.0 mi Variable 3.5 mph - N/A   Scattered Clouds
4:56 PM 75.0 °F 23.0 °F 14% 29.74 in 10.0 mi Variable 3.5 mph 17.3 mph N/A   Scattered Clouds
5:56 PM 75.0 °F 19.9 °F 13% 29.73 in 10.0 mi South 15.0 mph - N/A   Scattered Clouds
6:56 PM 73.9 °F 14.0 °F 10% 29.72 in 10.0 mi SW 15.0 mph - N/A   Scattered Clouds
7:56 PM 72.0 °F 15.1 °F 11% 29.72 in 10.0 mi SW 13.8 mph - N/A   Scattered Clouds
8:56 PM 70.0 °F 16.0 °F 13% 29.75 in 10.0 mi SSW 13.8 mph - N/A   Partly Cloudy
9:56 PM 69.1 °F 18.0 °F 14% 29.75 in 10.0 mi SSW 13.8 mph - N/A   Scattered Clouds
10:56 PM 68.0 °F 21.0 °F 17% 29.76 in 10.0 mi SW 11.5 mph - N/A   Scattered Clouds
11:56 PM 66.9 °F 23.0 °F 19% 29.78 in 10.0 mi SSW 10.4 mph - N/A   Scattered Clouds